Flag for United Kingdom Weather past 2 weeks in Newport (Isle of Wight), England, United Kingdom

Now
45 °F

Cool.


Feels Like: 40 °F
Forecast: N/A
Wind: 9 mph from West

Location: Saint Catherine's Point

Current Time: Mar 5, 2015 at 7:10:38 PM

Latest Report: Mar 5, 2015 at 6:00 PM


Visibility: N/A

Pressure: 30.67 "Hg

Humidity: 88%

Dew point: 42 °F

Location of Newport (Isle of Wight)Location

Historic Weather in Newport (Isle of Wight) — Graph

°F

Newport (Isle of Wight) temperature yesterday

Maximum temperature yesterday: 49 °F (at 3:00 PM)
Minimum temperature yesterday: 41 °F (at 7:00 AM)
Average temperature yesterday: 44 °F

Past Weeks' High & Low Weather Summary

 TemperatureHumidityPressure
High50 °F (Feb 25, 3:00 PM)96% (Feb 26, 8:00 AM)30.74 "Hg (Feb 26, 8:00 AM)
Low36 °F (Feb 22, 1:00 AM)54% (Mar 4, 4:00 PM)29.32 "Hg (Feb 22, 10:00 PM)
Average44 °F82%29.91 "Hg
* Reported Feb 18 5:00 PM — Mar 5 5:00 PM, Newport (Isle of Wight), Weather by CustomWeather, © 2015

Note: Actual official high and low records may vary slightly from our data, if they occured in-between our weather recording intervals... More about our weather records

Advertising

Newport (Isle of Wight) weather history for previous 24 hours

 ConditionsComfort  
Time TempWeatherWind HumidityBarometerVisibility
5:00 PM
Thu, Mar 5
47 °FCool.7 mph85%30.68 "HgN/A
4:00 PM47 °FCool.12 mph86%30.68 "HgN/A
3:00 PM48 °FCool.13 mph84%30.69 "HgN/A
2:00 PM48 °FCool.12 mph84%30.70 "HgN/A
1:00 PM48 °FCool.12 mph82%30.71 "HgN/A
12:00 PM48 °FCool.12 mph82%30.73 "HgN/A
11:00 AM46 °FCool.9 mph85%30.74 "HgN/A
10:00 AM45 °FCool.6 mph82%30.74 "HgN/A
9:00 AM44 °FQuite cool.7 mph84%30.74 "HgN/A
8:00 AM42 °FQuite cool.5 mph83%30.73 "HgN/A
7:00 AM40 °FChilly.7 mph86%30.73 "HgN/A
6:00 AM38 °FChilly.8 mph86%30.73 "HgN/A
5:00 AM38 °FChilly.6 mph77%30.73 "HgN/A
4:00 AM38 °FChilly.3 mph73%30.73 "HgN/A
2:00 AM41 °FQuite cool.10 mph65%30.71 "HgN/A
1:00 AM43 °FQuite cool.10 mph61%30.71 "HgN/A
12:00 AM42 °FQuite cool.12 mph64%30.70 "HgN/A
11:00 PM
Wed, Mar 4
41 °FQuite cool.8 mph71%30.70 "HgN/A
10:00 PM42 °FQuite cool.9 mph68%30.67 "HgN/A
8:00 PM44 °FQuite cool.10 mph68%30.64 "HgN/A
7:00 PM45 °FCool.5 mph66%30.61 "HgN/A
Weather by CustomWeather, © 2015

See weather overviewHow to use our weather pages